Torna al catalogo

CZ-7A R/B

AttivoHEO
NORAD 67303·ROCKET BODY·🇨🇳 China

Lanciato Dec 30, 2025 da Wenchang Space Launch Site

Loading…

Prossimi Passaggi (prossime 24 ore)

TLE

AggiornatoSource: Space-Track

Epoca: Sep 14, 2026, 13:37 UTC

1 67303U 25315B   26257.56767792  .00066862  10396-5  23477-2 0  9993
2 67303  19.7842 347.0149 7099150  26.1948 356.6900  2.55554094  6454

Traccia CZ-7A R/B in tempo reale con AllMySat

Download on the App Store